{"data":{"norad_id":43271,"intl_designator":"2018-033A","name":"SUPERBIRD-B3","alt_names":[],"object_type":"PAYLOAD","status":"ACTIVE","operator":null,"country":"JPN","launch_date":"2018-04-05","launch_site_code":"FRGUI","launch_vehicle":null,"mission":null,"orbit_class":"UNKNOWN","rcs_meters":null,"size_class":null,"mass_kg":null,"dimensions":null,"purposes":["comms"],"wikipedia_slug":null,"has_3d_model":false,"image_url":null,"decayed_at":null,"tle_current":{"epoch":"2026-09-19T15:27:55.711584Z","epoch_age_seconds":101035,"freshness":"FRESH","line1":"1 43271U 18033A   26262.64439481 -.00000096  00000+0  00000+0 0  9993","line2":"2 43271   0.0217  99.2368 0001080  82.5567 210.7714  1.00272679 31008","mean_motion":1.00272679,"eccentricity":0.000108,"inclination_deg":0.0217,"raan_deg":99.2368,"arg_perigee_deg":82.5567,"mean_anomaly_deg":210.7714,"bstar":0,"rev_number":3100,"period_min":1436.0841002363,"perigee_km":35781.790578415,"apogee_km":35790.898106385,"semimajor_km":42164.4813424,"source":"CELESTRAK","updated_at":"2026-09-20T09:00:35.259248Z"}}}